Year,Month,Day,Hour,Minute,Value (Times are PST for temperature in C)
2007,07,27,00,00,13.90
2007,07,27,00,01,13.90
2007,07,27,00,02,13.90
2007,07,27,00,03,13.90
2007,07,27,00,04,13.90
2007,07,27,00,05,13.90
2007,07,27,00,06,13.90
2007,07,27,00,07,13.90
2007,07,27,00,08,13.90
2007,07,27,00,09,13.90
2007,07,27,00,10,13.80
2007,07,27,00,11,13.80
2007,07,27,00,12,13.80
2007,07,27,00,13,13.80
2007,07,27,00,14,13.80
2007,07,27,00,15,13.80
2007,07,27,00,16,13.80
2007,07,27,00,17,13.80
2007,07,27,00,18,13.80
2007,07,27,00,19,13.80
2007,07,27,00,20,13.80
2007,07,27,00,21,13.80
2007,07,27,00,22,13.80
2007,07,27,00,23,13.80
2007,07,27,00,24,13.80
2007,07,27,00,25,13.80
2007,07,27,00,26,13.80
2007,07,27,00,27,13.80
2007,07,27,00,28,13.70
2007,07,27,00,29,13.60
2007,07,27,00,30,13.50
2007,07,27,00,31,13.50
2007,07,27,00,32,13.40
2007,07,27,00,33,13.30
2007,07,27,00,34,13.30
2007,07,27,00,35,13.20
2007,07,27,00,36,13.20
2007,07,27,00,37,13.20
2007,07,27,00,38,13.20
2007,07,27,00,39,13.20
2007,07,27,00,40,13.10
2007,07,27,00,41,13.10
2007,07,27,00,42,13.00
2007,07,27,00,43,13.00
2007,07,27,00,44,12.90
2007,07,27,00,45,12.90
2007,07,27,00,46,12.90
2007,07,27,00,47,12.90
2007,07,27,00,48,12.80
2007,07,27,00,49,12.80
2007,07,27,00,50,12.80
2007,07,27,00,51,12.80
2007,07,27,00,52,12.80
2007,07,27,00,53,12.80
2007,07,27,00,54,12.80
2007,07,27,00,55,12.80
2007,07,27,00,56,12.80
2007,07,27,00,57,12.80
2007,07,27,00,58,12.80
2007,07,27,00,59,12.80
2007,07,27,01,00,12.80
2007,07,27,01,01,12.80
2007,07,27,01,02,12.70
2007,07,27,01,03,12.70
2007,07,27,01,04,12.70
2007,07,27,01,05,12.60
2007,07,27,01,06,12.60
2007,07,27,01,07,12.60
2007,07,27,01,08,12.60
2007,07,27,01,09,12.60
2007,07,27,01,10,12.60
2007,07,27,01,11,12.50
2007,07,27,01,12,12.50
2007,07,27,01,13,12.50
2007,07,27,01,14,12.50
2007,07,27,01,15,12.50
2007,07,27,01,16,12.50
2007,07,27,01,17,12.50
2007,07,27,01,18,12.40
2007,07,27,01,19,12.40
2007,07,27,01,20,12.40
2007,07,27,01,21,12.40
2007,07,27,01,22,12.40
2007,07,27,01,23,12.40
2007,07,27,01,24,12.30
2007,07,27,01,25,12.30
2007,07,27,01,26,12.30
2007,07,27,01,27,12.30
2007,07,27,01,28,12.40
2007,07,27,01,29,12.40
2007,07,27,01,30,12.30
2007,07,27,01,31,12.30
2007,07,27,01,32,12.30
2007,07,27,01,33,12.30
2007,07,27,01,34,12.30
2007,07,27,01,35,12.30
2007,07,27,01,36,12.30
2007,07,27,01,37,12.30
2007,07,27,01,38,12.30
2007,07,27,01,39,12.30
2007,07,27,01,40,12.30
2007,07,27,01,41,12.20
2007,07,27,01,42,12.20
2007,07,27,01,43,12.20
2007,07,27,01,44,12.10
2007,07,27,01,45,12.10
2007,07,27,01,46,12.10
2007,07,27,01,47,12.10
2007,07,27,01,48,12.10
2007,07,27,01,49,12.10
2007,07,27,01,50,12.10
2007,07,27,01,51,12.00
2007,07,27,01,52,12.00
2007,07,27,01,53,12.00
2007,07,27,01,54,12.00
2007,07,27,01,55,11.90
2007,07,27,01,56,11.90
2007,07,27,01,57,11.90
2007,07,27,01,58,11.90
2007,07,27,01,59,11.90
2007,07,27,02,00,11.90
2007,07,27,02,01,11.80
2007,07,27,02,02,11.80
2007,07,27,02,03,11.80
2007,07,27,02,04,11.80
2007,07,27,02,05,11.80
2007,07,27,02,06,11.70
2007,07,27,02,07,11.70
2007,07,27,02,08,11.70
2007,07,27,02,09,11.70
2007,07,27,02,10,11.70
2007,07,27,02,11,11.70
2007,07,27,02,12,11.70
2007,07,27,02,13,11.60
2007,07,27,02,14,11.60
2007,07,27,02,15,11.60
2007,07,27,02,16,11.60
2007,07,27,02,17,11.60
2007,07,27,02,18,11.60
2007,07,27,02,19,11.50
2007,07,27,02,20,11.50
2007,07,27,02,21,11.40
2007,07,27,02,22,11.40
2007,07,27,02,23,11.40
2007,07,27,02,24,11.40
2007,07,27,02,25,11.40
2007,07,27,02,26,11.30
2007,07,27,02,27,11.30
2007,07,27,02,28,11.30
2007,07,27,02,29,11.30
2007,07,27,02,30,11.20
2007,07,27,02,31,11.20
2007,07,27,02,32,11.20
2007,07,27,02,33,11.20
2007,07,27,02,34,11.20
2007,07,27,02,35,11.20
2007,07,27,02,36,11.30
2007,07,27,02,37,11.30
2007,07,27,02,38,11.30
2007,07,27,02,39,11.30
2007,07,27,02,40,11.30
2007,07,27,02,41,11.30
2007,07,27,02,42,11.20
2007,07,27,02,43,11.20
2007,07,27,02,44,11.20
2007,07,27,02,45,11.20
2007,07,27,02,46,11.20
2007,07,27,02,47,11.20
2007,07,27,02,48,11.20
2007,07,27,02,49,11.10
2007,07,27,02,50,11.10
2007,07,27,02,51,11.10
2007,07,27,02,52,11.10
2007,07,27,02,53,11.10
2007,07,27,02,54,11.00
2007,07,27,02,55,11.00
2007,07,27,02,56,10.90
2007,07,27,02,57,10.90
2007,07,27,02,58,10.90
2007,07,27,02,59,10.90
2007,07,27,03,00,10.90
2007,07,27,03,01,10.80
2007,07,27,03,02,10.80
2007,07,27,03,03,10.80
2007,07,27,03,04,10.80
2007,07,27,03,05,10.80
2007,07,27,03,06,10.80
2007,07,27,03,07,10.80
2007,07,27,03,08,10.80
2007,07,27,03,09,10.80
2007,07,27,03,10,10.80
2007,07,27,03,11,10.80
2007,07,27,03,12,10.80
2007,07,27,03,13,10.80
2007,07,27,03,14,10.80
2007,07,27,03,15,10.70
2007,07,27,03,16,10.70
2007,07,27,03,17,10.70
2007,07,27,03,18,10.60
2007,07,27,03,19,10.60
2007,07,27,03,20,10.60
2007,07,27,03,21,10.50
2007,07,27,03,22,10.50
2007,07,27,03,23,10.40
2007,07,27,03,24,10.40
2007,07,27,03,25,10.40
2007,07,27,03,26,10.40
2007,07,27,03,27,10.40
2007,07,27,03,28,10.40
2007,07,27,03,29,10.40
2007,07,27,03,30,10.50
2007,07,27,03,31,10.50
2007,07,27,03,32,10.60
2007,07,27,03,33,10.60
2007,07,27,03,34,10.60
2007,07,27,03,35,10.70
2007,07,27,03,36,10.70
2007,07,27,03,37,10.70
2007,07,27,03,38,10.70
2007,07,27,03,39,10.60
2007,07,27,03,40,10.60
2007,07,27,03,41,10.60
2007,07,27,03,42,10.60
2007,07,27,03,43,10.50
2007,07,27,03,44,10.50
2007,07,27,03,45,10.40
2007,07,27,03,46,10.30
2007,07,27,03,47,10.30
2007,07,27,03,48,10.30
2007,07,27,03,49,10.20
2007,07,27,03,50,10.10
2007,07,27,03,51,10.10
2007,07,27,03,52,10.10
2007,07,27,03,53,10.00
2007,07,27,03,54,10.00
2007,07,27,03,55,10.00
2007,07,27,03,56,10.00
2007,07,27,03,57,10.00
2007,07,27,03,58,10.00
2007,07,27,03,59,10.10
2007,07,27,04,00,10.10
2007,07,27,04,01,10.10
2007,07,27,04,02,10.10
2007,07,27,04,03,10.10
2007,07,27,04,04,10.10
2007,07,27,04,05,10.10
2007,07,27,04,06,10.10
2007,07,27,04,07,10.00
2007,07,27,04,08,10.00
2007,07,27,04,09,10.00
2007,07,27,04,10,9.90
2007,07,27,04,11,9.90
2007,07,27,04,12,9.90
2007,07,27,04,13,9.90
2007,07,27,04,14,9.90
2007,07,27,04,15,9.90
2007,07,27,04,16,9.80
2007,07,27,04,17,9.80
2007,07,27,04,18,9.80
2007,07,27,04,19,9.80
2007,07,27,04,20,9.80
2007,07,27,04,21,9.80
2007,07,27,04,22,9.80
2007,07,27,04,23,9.80
2007,07,27,04,24,9.70
2007,07,27,04,25,9.70
2007,07,27,04,26,9.70
2007,07,27,04,27,9.80
2007,07,27,04,28,9.80
2007,07,27,04,29,9.80
2007,07,27,04,30,9.80
2007,07,27,04,31,9.80
2007,07,27,04,32,9.80
2007,07,27,04,33,9.80
2007,07,27,04,34,9.80
2007,07,27,04,35,9.80
2007,07,27,04,36,9.80
2007,07,27,04,37,9.80
2007,07,27,04,38,9.80
2007,07,27,04,39,9.80
2007,07,27,04,40,9.80
2007,07,27,04,41,9.70
2007,07,27,04,42,9.70
2007,07,27,04,43,9.70
2007,07,27,04,44,9.70
2007,07,27,04,45,9.70
2007,07,27,04,46,9.60
2007,07,27,04,47,9.60
2007,07,27,04,48,9.60
2007,07,27,04,49,9.60
2007,07,27,04,50,9.50
2007,07,27,04,51,9.50
2007,07,27,04,52,9.50
2007,07,27,04,53,9.50
2007,07,27,04,54,9.50
2007,07,27,04,55,9.60
2007,07,27,04,56,9.60
2007,07,27,04,57,9.60
2007,07,27,04,58,9.60
2007,07,27,04,59,9.60
2007,07,27,05,00,9.60
2007,07,27,05,01,9.60
2007,07,27,05,02,9.60
2007,07,27,05,03,9.60
2007,07,27,05,04,9.60
2007,07,27,05,05,9.60
2007,07,27,05,06,9.60
2007,07,27,05,07,9.60
2007,07,27,05,08,9.60
2007,07,27,05,09,9.60
2007,07,27,05,10,9.60
2007,07,27,05,11,9.60
2007,07,27,05,12,9.50
2007,07,27,05,13,9.50
2007,07,27,05,14,9.40
2007,07,27,05,15,9.40
2007,07,27,05,16,9.40
2007,07,27,05,17,9.40
2007,07,27,05,18,9.40
2007,07,27,05,19,9.40
2007,07,27,05,20,9.40
2007,07,27,05,21,9.40
2007,07,27,05,22,9.40
2007,07,27,05,23,9.40
2007,07,27,05,24,9.40
2007,07,27,05,25,9.40
2007,07,27,05,26,9.30
2007,07,27,05,27,9.30
2007,07,27,05,28,9.30
2007,07,27,05,29,9.30
2007,07,27,05,30,9.20
2007,07,27,05,31,9.20
2007,07,27,05,32,9.20
2007,07,27,05,33,9.20
2007,07,27,05,34,9.20
2007,07,27,05,35,9.20
2007,07,27,05,36,9.20
2007,07,27,05,37,9.10
2007,07,27,05,38,9.10
2007,07,27,05,39,9.10
2007,07,27,05,40,9.10
2007,07,27,05,41,9.10
2007,07,27,05,42,9.10
2007,07,27,05,43,9.10
2007,07,27,05,44,9.10
2007,07,27,05,45,9.10
2007,07,27,05,46,9.10
2007,07,27,05,47,9.10
2007,07,27,05,48,9.00
2007,07,27,05,49,9.00
2007,07,27,05,50,9.00
2007,07,27,05,51,9.00
2007,07,27,05,52,9.00
2007,07,27,05,53,9.00
2007,07,27,05,54,9.00
2007,07,27,05,55,9.00
2007,07,27,05,56,9.00
2007,07,27,05,57,9.00
2007,07,27,05,58,9.00
2007,07,27,05,59,9.00
2007,07,27,06,00,9.00
2007,07,27,06,01,9.00
2007,07,27,06,02,9.00
2007,07,27,06,03,9.00
2007,07,27,06,04,9.00
2007,07,27,06,05,9.00
2007,07,27,06,06,9.00
2007,07,27,06,07,9.00
2007,07,27,06,08,9.00
2007,07,27,06,09,9.00
2007,07,27,06,10,9.10
2007,07,27,06,11,9.10
2007,07,27,06,12,9.10
2007,07,27,06,13,9.20
2007,07,27,06,14,9.20
2007,07,27,06,15,9.20
2007,07,27,06,16,9.30
2007,07,27,06,17,9.40
2007,07,27,06,18,9.40
2007,07,27,06,19,9.50
2007,07,27,06,20,9.60
2007,07,27,06,21,9.60
2007,07,27,06,22,9.70
2007,07,27,06,23,9.80
2007,07,27,06,24,9.90
2007,07,27,06,25,9.90
2007,07,27,06,26,10.00
2007,07,27,06,27,10.10
2007,07,27,06,28,10.10
2007,07,27,06,29,10.20
2007,07,27,06,30,10.30
2007,07,27,06,31,10.30
2007,07,27,06,32,10.40
2007,07,27,06,33,10.50
2007,07,27,06,34,10.60
2007,07,27,06,35,10.60
2007,07,27,06,36,10.70
2007,07,27,06,37,10.80
2007,07,27,06,38,10.80
2007,07,27,06,39,10.90
2007,07,27,06,40,11.00
2007,07,27,06,41,11.10
2007,07,27,06,42,11.20
2007,07,27,06,43,11.30
2007,07,27,06,44,11.40
2007,07,27,06,45,11.50
2007,07,27,06,46,11.50
2007,07,27,06,47,11.60
2007,07,27,06,48,11.70
2007,07,27,06,49,11.70
2007,07,27,06,50,11.70
2007,07,27,06,51,11.80
2007,07,27,06,52,11.90
2007,07,27,06,53,11.90
2007,07,27,06,54,12.00
2007,07,27,06,55,12.10
2007,07,27,06,56,12.10
2007,07,27,06,57,12.20
2007,07,27,06,58,12.20
2007,07,27,06,59,12.30
2007,07,27,07,00,12.30
2007,07,27,07,01,12.40
2007,07,27,07,02,12.50
2007,07,27,07,03,12.60
2007,07,27,07,04,12.60
2007,07,27,07,05,12.70
2007,07,27,07,06,12.70
2007,07,27,07,07,12.80
2007,07,27,07,08,12.80
2007,07,27,07,09,12.90
2007,07,27,07,10,12.90
2007,07,27,07,11,13.00
2007,07,27,07,12,13.10
2007,07,27,07,13,13.20
2007,07,27,07,14,13.30
2007,07,27,07,15,13.40
2007,07,27,07,16,13.50
2007,07,27,07,17,13.60
2007,07,27,07,18,13.70
2007,07,27,07,19,13.70
2007,07,27,07,20,13.80
2007,07,27,07,21,13.90
2007,07,27,07,22,14.00
2007,07,27,07,23,14.10
2007,07,27,07,24,14.20
2007,07,27,07,25,14.30
2007,07,27,07,26,14.30
2007,07,27,07,27,14.30
2007,07,27,07,28,14.30
2007,07,27,07,29,14.40
2007,07,27,07,30,14.50
2007,07,27,07,31,14.60
2007,07,27,07,32,14.60
2007,07,27,07,33,14.70
2007,07,27,07,34,14.80
2007,07,27,07,35,14.80
2007,07,27,07,36,14.90
2007,07,27,07,37,14.90
2007,07,27,07,38,15.00
2007,07,27,07,39,15.00
2007,07,27,07,40,15.00
2007,07,27,07,41,15.00
2007,07,27,07,42,15.00
2007,07,27,07,43,15.00
2007,07,27,07,44,15.00
2007,07,27,07,45,15.10
2007,07,27,07,46,15.20
2007,07,27,07,47,15.30
2007,07,27,07,48,15.30
2007,07,27,07,49,15.40
2007,07,27,07,50,15.50
2007,07,27,07,51,15.60
2007,07,27,07,52,15.70
2007,07,27,07,53,15.80
2007,07,27,07,54,15.90
2007,07,27,07,55,16.00
2007,07,27,07,56,16.00
2007,07,27,07,57,16.10
2007,07,27,07,58,16.10
2007,07,27,07,59,16.10
2007,07,27,08,00,16.10
2007,07,27,08,01,16.10
2007,07,27,08,02,16.00
2007,07,27,08,03,16.00
2007,07,27,08,04,16.00
2007,07,27,08,05,16.00
2007,07,27,08,06,16.10
2007,07,27,08,07,16.10
2007,07,27,08,08,16.10
2007,07,27,08,09,16.20
2007,07,27,08,10,16.20
2007,07,27,08,11,16.30
2007,07,27,08,12,16.30
2007,07,27,08,13,16.40
2007,07,27,08,14,16.40
2007,07,27,08,15,16.40
2007,07,27,08,16,16.50
2007,07,27,08,17,16.60
2007,07,27,08,18,16.60
2007,07,27,08,19,16.70
2007,07,27,08,20,16.70
2007,07,27,08,21,16.80
2007,07,27,08,22,16.80
2007,07,27,08,23,16.80
2007,07,27,08,24,16.70
2007,07,27,08,25,16.70
2007,07,27,08,26,16.80
2007,07,27,08,27,16.80
2007,07,27,08,28,16.80
2007,07,27,08,29,16.80
2007,07,27,08,30,16.70
2007,07,27,08,31,16.60
2007,07,27,08,32,16.60
2007,07,27,08,33,16.70
2007,07,27,08,34,16.70
2007,07,27,08,35,16.80
2007,07,27,08,36,16.80
2007,07,27,08,37,16.90
2007,07,27,08,38,17.00
2007,07,27,08,39,17.10
2007,07,27,08,40,17.20
2007,07,27,08,41,17.20
2007,07,27,08,42,17.20
2007,07,27,08,43,17.30
2007,07,27,08,44,17.30
2007,07,27,08,45,17.30
2007,07,27,08,46,17.30
2007,07,27,08,47,17.30
2007,07,27,08,48,17.20
2007,07,27,08,49,17.20
2007,07,27,08,50,17.30
2007,07,27,08,51,17.40
2007,07,27,08,52,17.50
2007,07,27,08,53,17.60
2007,07,27,08,54,17.60
2007,07,27,08,55,17.50
2007,07,27,08,56,17.50
2007,07,27,08,57,17.40
2007,07,27,08,58,17.50
2007,07,27,08,59,17.60
2007,07,27,09,00,17.70
2007,07,27,09,01,17.80
2007,07,27,09,02,17.70
2007,07,27,09,03,17.70
2007,07,27,09,04,17.60
2007,07,27,09,05,17.50
2007,07,27,09,06,17.40
2007,07,27,09,07,17.40
2007,07,27,09,08,17.50
2007,07,27,09,09,17.50
2007,07,27,09,10,17.50
2007,07,27,09,11,17.50
2007,07,27,09,12,17.40
2007,07,27,09,13,17.50
2007,07,27,09,14,17.50
2007,07,27,09,15,17.40
2007,07,27,09,16,17.40
2007,07,27,09,17,17.50
2007,07,27,09,18,17.50
2007,07,27,09,19,17.40
2007,07,27,09,20,17.40
2007,07,27,09,21,17.50
2007,07,27,09,22,17.50
2007,07,27,09,23,17.50
2007,07,27,09,24,17.60
2007,07,27,09,25,17.60
2007,07,27,09,26,17.60
2007,07,27,09,27,17.70
2007,07,27,09,28,17.70
2007,07,27,09,29,17.80
2007,07,27,09,30,17.90
2007,07,27,09,31,18.10
2007,07,27,09,32,18.10
2007,07,27,09,33,18.20
2007,07,27,09,34,18.20
2007,07,27,09,35,18.20
2007,07,27,09,36,18.10
2007,07,27,09,37,18.10
2007,07,27,09,38,18.10
2007,07,27,09,39,18.10
2007,07,27,09,40,18.10
2007,07,27,09,41,18.10
2007,07,27,09,42,18.20
2007,07,27,09,43,18.20
2007,07,27,09,44,18.20
2007,07,27,09,45,18.20
2007,07,27,09,46,18.30
2007,07,27,09,47,18.30
2007,07,27,09,48,18.30
2007,07,27,09,49,18.30
2007,07,27,09,50,18.20
2007,07,27,09,51,18.20
2007,07,27,09,52,18.20
2007,07,27,09,53,18.10
2007,07,27,09,54,18.10
2007,07,27,09,55,18.00
2007,07,27,09,56,18.10
2007,07,27,09,57,18.10
2007,07,27,09,58,18.10
2007,07,27,09,59,18.30
2007,07,27,10,00,18.40
2007,07,27,10,01,18.50
2007,07,27,10,02,18.60
2007,07,27,10,03,18.70
2007,07,27,10,04,18.80
2007,07,27,10,05,18.90
2007,07,27,10,06,19.00
2007,07,27,10,07,19.10
2007,07,27,10,08,19.10
2007,07,27,10,09,19.00
2007,07,27,10,10,18.90
2007,07,27,10,11,18.90
2007,07,27,10,12,18.80
2007,07,27,10,13,18.80
2007,07,27,10,14,18.80
2007,07,27,10,15,18.90
2007,07,27,10,16,18.90
2007,07,27,10,17,18.90
2007,07,27,10,18,18.90
2007,07,27,10,19,18.90
2007,07,27,10,20,18.90
2007,07,27,10,21,19.00
2007,07,27,10,22,19.00
2007,07,27,10,23,19.00
2007,07,27,10,24,19.10
2007,07,27,10,25,19.10
2007,07,27,10,26,19.10
2007,07,27,10,27,19.10
2007,07,27,10,28,19.10
2007,07,27,10,29,19.10
2007,07,27,10,30,19.20
2007,07,27,10,31,19.30
2007,07,27,10,32,19.30
2007,07,27,10,33,19.30
2007,07,27,10,34,19.40
2007,07,27,10,35,19.50
2007,07,27,10,36,19.60
2007,07,27,10,37,19.60
2007,07,27,10,38,19.70
2007,07,27,10,39,19.80
2007,07,27,10,40,19.80
2007,07,27,10,41,19.80
2007,07,27,10,42,19.80
2007,07,27,10,43,19.70
2007,07,27,10,44,19.70
2007,07,27,10,45,19.70
2007,07,27,10,46,19.60
2007,07,27,10,47,19.50
2007,07,27,10,48,19.50
2007,07,27,10,49,19.50
2007,07,27,10,50,19.60
2007,07,27,10,51,19.60
2007,07,27,10,52,19.60
2007,07,27,10,53,19.80
2007,07,27,10,54,20.00
2007,07,27,10,55,20.00
2007,07,27,10,56,20.00
2007,07,27,10,57,20.10
2007,07,27,10,58,20.10
2007,07,27,10,59,20.00
2007,07,27,11,00,20.00
2007,07,27,11,01,20.00
2007,07,27,11,02,19.90
2007,07,27,11,03,20.00
2007,07,27,11,04,20.00
2007,07,27,11,05,20.10
2007,07,27,11,06,20.10
2007,07,27,11,07,20.10
2007,07,27,11,08,20.20
2007,07,27,11,09,20.20
2007,07,27,11,10,20.20
2007,07,27,11,11,20.30
2007,07,27,11,12,20.30
2007,07,27,11,13,20.50
2007,07,27,11,14,20.60
2007,07,27,11,15,20.60
2007,07,27,11,16,20.60
2007,07,27,11,17,20.60
2007,07,27,11,18,20.60
2007,07,27,11,19,20.60
2007,07,27,11,20,20.60
2007,07,27,11,21,20.50
2007,07,27,11,22,20.30
2007,07,27,11,23,20.20
2007,07,27,11,24,20.20
2007,07,27,11,25,20.20
2007,07,27,11,26,20.20
2007,07,27,11,27,20.20
2007,07,27,11,28,20.20
2007,07,27,11,29,20.20
2007,07,27,11,30,20.20
2007,07,27,11,31,20.20
2007,07,27,11,32,20.20
2007,07,27,11,33,20.30
2007,07,27,11,34,20.30
2007,07,27,11,35,20.30
2007,07,27,11,36,20.30
2007,07,27,11,37,20.40
2007,07,27,11,38,20.60
2007,07,27,11,39,20.80
2007,07,27,11,40,20.80
2007,07,27,11,41,20.80
2007,07,27,11,42,20.70
2007,07,27,11,43,20.70
2007,07,27,11,44,20.80
2007,07,27,11,45,20.90
2007,07,27,11,46,21.00
2007,07,27,11,47,21.10
2007,07,27,11,48,21.10
2007,07,27,11,49,21.00
2007,07,27,11,50,21.00
2007,07,27,11,51,21.10
2007,07,27,11,52,21.10
2007,07,27,11,53,21.10
2007,07,27,11,54,21.10
2007,07,27,11,55,21.10
2007,07,27,11,56,20.90
2007,07,27,11,57,20.80
2007,07,27,11,58,20.80
2007,07,27,11,59,20.80
2007,07,27,12,00,20.80
2007,07,27,12,01,20.70
2007,07,27,12,02,20.60
2007,07,27,12,03,20.60
2007,07,27,12,04,20.70
2007,07,27,12,05,20.80
2007,07,27,12,06,20.70
2007,07,27,12,07,20.70
2007,07,27,12,08,20.70
2007,07,27,12,09,20.70
2007,07,27,12,10,20.70
2007,07,27,12,11,20.70
2007,07,27,12,12,20.80
2007,07,27,12,13,20.80
2007,07,27,12,14,20.80
2007,07,27,12,15,20.80
2007,07,27,12,16,20.90
2007,07,27,12,17,21.10
2007,07,27,12,18,21.10
2007,07,27,12,19,21.10
2007,07,27,12,20,21.00
2007,07,27,12,21,21.00
2007,07,27,12,22,21.10
2007,07,27,12,23,21.20
2007,07,27,12,24,21.10
2007,07,27,12,25,21.10
2007,07,27,12,26,21.10
2007,07,27,12,27,21.10
2007,07,27,12,28,21.20
2007,07,27,12,29,21.30
2007,07,27,12,30,21.40
2007,07,27,12,31,21.40
2007,07,27,12,32,21.40
2007,07,27,12,33,21.50
2007,07,27,12,34,21.60
2007,07,27,12,35,21.70
2007,07,27,12,36,21.70
2007,07,27,12,37,21.60
2007,07,27,12,38,21.60
2007,07,27,12,39,21.50
2007,07,27,12,40,21.40
2007,07,27,12,41,21.30
2007,07,27,12,42,21.20
2007,07,27,12,43,21.30
2007,07,27,12,44,21.20
2007,07,27,12,45,21.10
2007,07,27,12,46,21.20
2007,07,27,12,47,21.30
2007,07,27,12,48,21.40
2007,07,27,12,49,21.30
2007,07,27,12,50,21.30
2007,07,27,12,51,21.30
2007,07,27,12,52,21.40
2007,07,27,12,53,21.40
2007,07,27,12,54,21.40
2007,07,27,12,55,21.30
2007,07,27,12,56,21.30
2007,07,27,12,57,21.20
2007,07,27,12,58,21.20
2007,07,27,12,59,21.20
2007,07,27,13,00,21.30
2007,07,27,13,01,21.40
2007,07,27,13,02,21.50
2007,07,27,13,03,21.70
2007,07,27,13,04,21.60
2007,07,27,13,05,21.70
2007,07,27,13,06,21.70
2007,07,27,13,07,21.70
2007,07,27,13,08,21.70
2007,07,27,13,09,21.70
2007,07,27,13,10,21.80
2007,07,27,13,11,21.80
2007,07,27,13,12,21.70
2007,07,27,13,13,21.80
2007,07,27,13,14,21.70
2007,07,27,13,15,21.80
2007,07,27,13,16,21.80
2007,07,27,13,17,21.60
2007,07,27,13,18,21.40
2007,07,27,13,19,21.20
2007,07,27,13,20,21.10
2007,07,27,13,21,21.10
2007,07,27,13,22,21.10
2007,07,27,13,23,21.20
2007,07,27,13,24,21.30
2007,07,27,13,25,21.30
2007,07,27,13,26,21.40
2007,07,27,13,27,21.40
2007,07,27,13,28,21.40
2007,07,27,13,29,21.40
2007,07,27,13,30,21.40
2007,07,27,13,31,21.30
2007,07,27,13,32,21.30
2007,07,27,13,33,21.40
2007,07,27,13,34,21.30
2007,07,27,13,35,21.30
2007,07,27,13,36,21.40
2007,07,27,13,37,21.50
2007,07,27,13,38,21.60
2007,07,27,13,39,21.70
2007,07,27,13,40,21.70
2007,07,27,13,41,21.80
2007,07,27,13,42,21.90
2007,07,27,13,43,22.00
2007,07,27,13,44,21.90
2007,07,27,13,45,21.90
2007,07,27,13,46,21.80
2007,07,27,13,47,21.80
2007,07,27,13,48,21.80
2007,07,27,13,49,21.80
2007,07,27,13,50,21.80
2007,07,27,13,51,21.90
2007,07,27,13,52,21.90
2007,07,27,13,53,21.90
2007,07,27,13,54,21.90
2007,07,27,13,55,21.90
2007,07,27,13,56,21.80
2007,07,27,13,57,21.80
2007,07,27,13,58,21.80
2007,07,27,13,59,21.90
2007,07,27,14,00,21.90
2007,07,27,14,01,22.00
2007,07,27,14,02,22.10
2007,07,27,14,03,22.20
2007,07,27,14,04,22.40
2007,07,27,14,05,22.60
2007,07,27,14,06,22.60
2007,07,27,14,07,22.50
2007,07,27,14,08,22.50
2007,07,27,14,09,22.50
2007,07,27,14,10,22.40
2007,07,27,14,11,22.40
2007,07,27,14,12,22.50
2007,07,27,14,13,22.50
2007,07,27,14,14,22.50
2007,07,27,14,15,22.60
2007,07,27,14,16,22.70
2007,07,27,14,17,22.70
2007,07,27,14,18,22.80
2007,07,27,14,19,22.90
2007,07,27,14,20,22.90
2007,07,27,14,21,23.00
2007,07,27,14,22,23.00
2007,07,27,14,23,22.90
2007,07,27,14,24,22.80
2007,07,27,14,25,22.80
2007,07,27,14,26,22.70
2007,07,27,14,27,22.80
2007,07,27,14,28,22.90
2007,07,27,14,29,23.00
2007,07,27,14,30,23.00
2007,07,27,14,31,22.90
2007,07,27,14,32,23.00
2007,07,27,14,33,23.00
2007,07,27,14,34,22.90
2007,07,27,14,35,22.90
2007,07,27,14,36,22.90
2007,07,27,14,37,22.90
2007,07,27,14,38,23.00
2007,07,27,14,39,23.20
2007,07,27,14,40,23.20
2007,07,27,14,41,23.20
2007,07,27,14,42,23.40
2007,07,27,14,43,23.50
2007,07,27,14,44,23.60
2007,07,27,14,45,23.60
2007,07,27,14,46,23.50
2007,07,27,14,47,23.40
2007,07,27,14,48,23.40
2007,07,27,14,49,23.40
2007,07,27,14,50,23.50
2007,07,27,14,51,23.60
2007,07,27,14,52,23.60
2007,07,27,14,53,23.60
2007,07,27,14,54,23.60
2007,07,27,14,55,23.60
2007,07,27,14,56,23.60
2007,07,27,14,57,23.50
2007,07,27,14,58,23.40
2007,07,27,14,59,23.40
2007,07,27,15,00,23.50
2007,07,27,15,01,23.60
2007,07,27,15,02,23.60
2007,07,27,15,03,23.60
2007,07,27,15,04,23.60
2007,07,27,15,05,23.80
2007,07,27,15,06,24.00
2007,07,27,15,07,24.00
2007,07,27,15,08,24.10
2007,07,27,15,09,24.20
2007,07,27,15,10,24.30
2007,07,27,15,11,24.40
2007,07,27,15,12,24.40
2007,07,27,15,13,24.40
2007,07,27,15,14,24.30
2007,07,27,15,15,24.30
2007,07,27,15,16,24.30
2007,07,27,15,17,24.30
2007,07,27,15,18,24.30
2007,07,27,15,19,24.30
2007,07,27,15,20,24.20
2007,07,27,15,21,24.20
2007,07,27,15,22,24.10
2007,07,27,15,23,24.10
2007,07,27,15,24,24.10
2007,07,27,15,25,24.10
2007,07,27,15,26,24.10
2007,07,27,15,27,24.10
2007,07,27,15,28,24.30
2007,07,27,15,29,24.40
2007,07,27,15,30,24.40
2007,07,27,15,31,24.40
2007,07,27,15,32,24.30
2007,07,27,15,33,24.30
2007,07,27,15,34,24.40
2007,07,27,15,35,24.40
2007,07,27,15,36,24.40
2007,07,27,15,37,24.40
2007,07,27,15,38,24.30
2007,07,27,15,39,24.20
2007,07,27,15,40,24.10
2007,07,27,15,41,24.10
2007,07,27,15,42,24.10
2007,07,27,15,43,24.20
2007,07,27,15,44,24.30
2007,07,27,15,45,24.40
2007,07,27,15,46,24.40
2007,07,27,15,47,24.40
2007,07,27,15,48,24.40
2007,07,27,15,49,24.40
2007,07,27,15,50,24.40
2007,07,27,15,51,24.40
2007,07,27,15,52,24.40
2007,07,27,15,53,24.50
2007,07,27,15,54,24.50
2007,07,27,15,55,24.50
2007,07,27,15,56,24.60
2007,07,27,15,57,24.60
2007,07,27,15,58,24.60
2007,07,27,15,59,24.70
2007,07,27,16,00,24.80
2007,07,27,16,01,24.80
2007,07,27,16,02,24.80
2007,07,27,16,03,24.90
2007,07,27,16,04,24.90
2007,07,27,16,05,25.00
2007,07,27,16,06,25.10
2007,07,27,16,07,25.10
2007,07,27,16,08,25.20
2007,07,27,16,09,25.20
2007,07,27,16,10,25.20
2007,07,27,16,11,25.20
2007,07,27,16,12,25.10
2007,07,27,16,13,25.10
2007,07,27,16,14,25.10
2007,07,27,16,15,25.10
2007,07,27,16,16,25.00
2007,07,27,16,17,25.00
2007,07,27,16,18,25.00
2007,07,27,16,19,24.90
2007,07,27,16,20,24.90
2007,07,27,16,21,25.00
2007,07,27,16,22,25.00
2007,07,27,16,23,25.00
2007,07,27,16,24,25.00
2007,07,27,16,25,24.90
2007,07,27,16,26,24.80
2007,07,27,16,27,24.70
2007,07,27,16,28,24.80
2007,07,27,16,29,24.80
2007,07,27,16,30,24.70
2007,07,27,16,31,24.60
2007,07,27,16,32,24.50
2007,07,27,16,33,24.30
2007,07,27,16,34,24.20
2007,07,27,16,35,24.30
2007,07,27,16,36,24.20
2007,07,27,16,37,24.30
2007,07,27,16,38,24.30
2007,07,27,16,39,24.20
2007,07,27,16,40,24.20
2007,07,27,16,41,24.20
2007,07,27,16,42,24.10
2007,07,27,16,43,24.10
2007,07,27,16,44,24.10
2007,07,27,16,45,24.10
2007,07,27,16,46,24.10
2007,07,27,16,47,24.10
2007,07,27,16,48,24.10
2007,07,27,16,49,24.10
2007,07,27,16,50,24.10
2007,07,27,16,51,24.10
2007,07,27,16,52,24.10
2007,07,27,16,53,24.10
2007,07,27,16,54,24.00
2007,07,27,16,55,24.00
2007,07,27,16,56,24.00
2007,07,27,16,57,24.00
2007,07,27,16,58,24.10
2007,07,27,16,59,24.20
2007,07,27,17,00,24.30
2007,07,27,17,01,24.30
2007,07,27,17,02,24.30
2007,07,27,17,03,24.30
2007,07,27,17,04,24.20
2007,07,27,17,05,24.10
2007,07,27,17,06,24.00
2007,07,27,17,07,24.00
2007,07,27,17,08,24.00
2007,07,27,17,09,24.00
2007,07,27,17,10,24.00
2007,07,27,17,11,24.10
2007,07,27,17,12,24.10
2007,07,27,17,13,24.00
2007,07,27,17,14,24.00
2007,07,27,17,15,24.10
2007,07,27,17,16,24.10
2007,07,27,17,17,24.10
2007,07,27,17,18,24.10
2007,07,27,17,19,24.10
2007,07,27,17,20,24.10
2007,07,27,17,21,24.00
2007,07,27,17,22,24.00
2007,07,27,17,23,24.00
2007,07,27,17,24,24.00
2007,07,27,17,25,24.00